This is the latest recevied weather packets stored in our database for station/object K0PFX-8. If no packets are shown the sender has not sent any weather packets the latest 10 day(s).
| Time | Temp. | Humidity | Pressure | Rain* | Wind** | Luminosity | Snow |
|---|---|---|---|---|---|---|---|
| 1778241817 | 10.56° C | 79% | 1014.3 hPa | 0 mm | 0.45 m/s, 205° | - | - |
| 1778240920 | 10° C | 80% | 1014.3 hPa | 0 mm | 0 m/s | - | - |
| 1778240017 | 9.44° C | 81% | 1014.1 hPa | 0 mm | 0 m/s | - | - |
| 1778239119 | 9.44° C | 79% | 1014.2 hPa | 0 mm | 0 m/s | - | - |
| 1778238218 | 10° C | 77% | 1014 hPa | 0 mm | 0 m/s | - | - |
| 1778237319 | 10° C | 76% | 1014.1 hPa | 0 mm | 0 m/s | - | - |
| 1778236418 | 10° C | 75% | 1014.1 hPa | 0 mm | 0 m/s | - | - |
| 1778235520 | 10° C | 73% | 1014.1 hPa | 0 mm | 0 m/s | - | - |
| 1778234619 | 10.56° C | 73% | 1014.1 hPa | 0 mm | 0 m/s | - | - |
| 1778233720 | 10.56° C | 71% | 1014.1 hPa | 0 mm | 0 m/s | - | - |
| 1778232819 | 10.56° C | 71% | 1014.2 hPa | 0 mm | 0 m/s | - | - |
| 1778231921 | 10.56° C | 71% | 1014.3 hPa | 0 mm | 0.45 m/s, 115° | - | - |
| 1778230122 | 11.11° C | 68% | 1014.2 hPa | 0 mm | 0 m/s | - | - |
| 1778229221 | 11.11° C | 68% | 1014.1 hPa | 0 mm | 0 m/s | - | - |
| 1778228322 | 11.11° C | 67% | 1014.2 hPa | 0 mm | 0 m/s | - | - |
| 1778227421 | 11.11° C | 68% | 1014.2 hPa | 0 mm | 0 m/s | - | - |
| 1778226523 | 11.11° C | 69% | 1014.3 hPa | 0 mm | 0.89 m/s, 159° | - | - |
| 1778225622 | 11.11° C | 71% | 1014.4 hPa | 0 mm | 0 m/s | - | - |
| 1778224986 | 11.11° C | 69% | 1014.4 hPa | 0 mm | 0 m/s | - | - |
| 1778224723 | 11.11° C | 69% | 1014.4 hPa | 0 mm | 0 m/s | - | - |
| 1778223822 | 11.11° C | 69% | 1014.5 hPa | 0 mm | 0 m/s | - | - |
| 1778222923 | 11.11° C | 72% | 1014.6 hPa | 0 mm | 0 m/s | - | - |
| 1778222022 | 11.11° C | 67% | 1014.7 hPa | 0 mm | 0 m/s | - | - |
| 1778221124 | 11.67° C | 71% | 1014.9 hPa | 0 mm | 0 m/s | - | - |
| 1778220223 | 11.67° C | 65% | 1015 hPa | 0 mm | 0 m/s | - | - |
* Rain latest hour (hover to see other rain measurements)
** Current wind speed in m/s (hover to see current wind gust speed)